Flag for Switzerland Weather past 2 weeks in Stans, Nidwalden, Switzerland

Now
57 °F

Cool.


Feels Like: 57 °F
Forecast: 42 / 75 °F
Wind: 2 mph from West

Location: Giswil

Current Time: Aug 22, 2014 at 12:13:52 AM

Latest Report: Aug 21, 2014 at 11:00 PM


Visibility: N/A

Pressure: 30.06 "Hg

Humidity: 93%

Dew point: 55 °F

Location of StansLocation

Historic Weather in Stans — Graph

°F

Stans temperature yesterday

Maximum temperature yesterday: 68 °F (at 3:00 PM)
Minimum temperature yesterday: 50 °F (at 7:00 AM)
Average temperature yesterday: 59 °F

Past Weeks' High & Low Weather Summary

 TemperatureHumidityPressure
High82 °F (Aug 10, 5:00 PM)99% (Aug 7, 7:00 AM)30.25 "Hg (Aug 7, 7:00 AM)
Low43 °F (Aug 17, 6:00 AM)47% (Aug 17, 3:00 PM)29.69 "Hg (Aug 13, 10:00 AM)
Average62 °F83%29.99 "Hg
* Reported Aug 6 10:00 PM — Aug 21 10:00 PM, Stans, Weather by CustomWeather, © 2014

Note: Actual official high and low records may vary slightly from our data, if they occured in-between our weather recording intervals... More about our weather records

Advertising

Stans weather history for previous 24 hours

 ConditionsComfort  
Time TempWeatherWind HumidityBarometerVisibility
10:00 PM
Aug 21
59 °FCool.2 mph90%30.05 "HgN/A
9:00 PM61 °FCool.1 mph78%30.03 "HgN/A
8:00 PM62 °FCool.2 mph75%30.02 "HgN/A
7:00 PM63 °FMild.No wind72%30.01 "HgN/A
6:00 PM66 °FMild.3 mph58%30.00 "HgN/A
5:00 PM67 °FMild.2 mph54%29.99 "HgN/A
4:00 PM68 °FMild.6 mph51%30.00 "HgN/A
3:00 PM68 °FMild.5 mph52%30.01 "HgN/A
2:00 PM67 °FMild.5 mph53%30.03 "HgN/A
1:00 PM65 °FMild.5 mph59%30.04 "HgN/A
12:00 PM63 °FMild.3 mph65%30.06 "HgN/A
11:00 AM60 °FCool.2 mph71%30.08 "HgN/A
10:00 AM57 °FCool.2 mph83%30.10 "HgN/A
9:00 AM55 °FCool.1 mph87%30.11 "HgN/A
8:00 AM52 °FCool.1 mph99%30.12 "HgN/A
7:00 AM50 °FCool.No wind99%30.12 "HgN/A
6:00 AM51 °FCool.2 mph99%30.11 "HgN/A
5:00 AM52 °FCool.1 mph99%30.12 "HgN/A
4:00 AM52 °FCool.1 mph97%30.12 "HgN/A
3:00 AM55 °FCool.1 mph89%30.11 "HgN/A
2:00 AM56 °FCool.2 mph96%30.11 "HgN/A
1:00 AM56 °FCool.1 mph98%30.10 "HgN/A
12:00 AM56 °FCool.1 mph97%30.08 "HgN/A
Weather by CustomWeather, © 2014

See weather overviewHow to use our weather pages